Regional Weather Roundup
Issued by NWS

Home | Current Version | Previous Version | Text Only | Print | Product List | Glossary On
Versions: 1 2 3 4 5 6 7 8 9 10 11 12 13 14 15 16 17 18 19 20 21 22 23 24 25 26 27 28 29 30 31 32 33 34 35 36 37 38 39 40 41 42 43 44 45 46 47 48 49 50
998
ASUS43 KDMX 282208
RWRIA

WEATHER ROUNDUP FOR IOWA
NATIONAL WEATHER SERVICE DES MOINES IA
500 PM CDT SUN AUG 28 2016

NOTE: "FAIR" INDICATES FEW OR NO CLOUDS BELOW 12,000 FEET WITH NO
SIGNIFICANT WEATHER AND/OR OBSTRUCTIONS TO VISIBILITY.

* - THESE STATIONS ARE NOT NWS STATIONS...THUS NOT UNDER NWS
QUALITY CONTROL.  THEY ALSO DO NOT REPORT WEATHER SUCH
AS PRECIPITATION OR FOG.

IAZ001>003-012>014-020>022-031>034-043>046-282300-
   NORTHWEST IOWA

CITY           SKY/WX    TMP DP  RH WIND       PRES   REMARKS
CARROLL *      PTSUNNY   86  73  66 SE7G14    30.08R HX  93
CHEROKEE *     PTSUNNY   85  75  72 SE9       30.06S HX  94
DENISON *      HAZE      86  73  66 SE6       30.05S VSB 1/2 HX  93
LE MARS *      SUNNY     88  72  58 S12G17    30.05S HX  94
ORANGE CITY *  SUNNY     84  73  70 S8        30.06S HX  91
SHELDON *      SUNNY     84  75  74 S10G20    30.05S HX  92
SIOUX CITY     PTSUNNY   87  72  60 S13       30.03F HX  93
SPENCER        SUNNY     86  71  60 SE14      30.07F HX  91
STORM LAKE *   MOSUNNY   82  73  74 SE9       30.08F HX  88
$$

IAZ055>058-069>071-079>083-090>094-282300-
   SOUTHWEST IOWA

CITY           SKY/WX    TMP DP  RH WIND       PRES   REMARKS
ATLANTIC *     CLOUDY    77  68  73 SE10G18   30.10R
AUDUBON *      CLOUDY    82  68  61 SE14      30.13R HX  85
CLARINDA *       N/A     72  68  88 MISG      30.14R
COUNCIL BLFS * CLOUDY    86  75  70 SE13      30.07S HX  95
CRESTON *      CLOUDY    70  64  83 S12G18    30.14S
HARLAN  *      PTSUNNY   84  75  74 S10       30.10S HX  92
LAMONI         LGT RAIN  75  73  93 W10       30.12S
RED OAK *      CLOUDY    72  66  83 S16G24    30.12R
SHENANDOAH *   CLOUDY    70 -38   1 SW10G20   30.12R HAZE
$$

IAZ047>049-059>061-072>074-084-282300-
   CENTRAL IOWA

CITY           SKY/WX    TMP DP  RH WIND       PRES   REMARKS
AMES           CLOUDY    84  74  71 SE6       30.09S HX  91
ANKENY *         N/A    N/A N/A N/A MISG        N/A
BOONE *        MOSUNNY   84  72  65 SE7       30.10R HX  89
CHARITON *       N/A     81  73  78 MISG      30.10S HX  85
DES MOINES     CLOUDY    85  74  69 SE9       30.09R HX  92
GRINNELL*      CLOUDY    82  73  72 E7        30.11F HX  88
KNOXVILLE *    CLOUDY    72  63  73 SE15G25   30.11R HAZE
MARSHALLTOWN   CLOUDY    85  73  67 SE8       30.10S HX  91
NEWTON *       CLOUDY    82  75  78 SE8       30.10S HX  89
PERRY *          N/A     82  75  80 SE8       30.09R HX  89
$$

IAZ004>006-015-016-023>025-035-036-282300-
   NORTH CENTRAL IOWA

CITY           SKY/WX    TMP DP  RH WIND       PRES   REMARKS
ALGONA *       MOSUNNY   82  72  69 SE7       30.10S HX  87
ESTHERVILLE    SUNNY     83  71  67 SE15      30.08F HX  87
FORT DODGE *   MOSUNNY   84  70  61 SE6       30.09S HX  88
MASON CITY     PTSUNNY   83  72  69 SE7       30.13S HX  88
FOREST CITY *    N/A    N/A N/A N/A MISG        N/A
WEBSTER CITY * SUNNY     84  73  70 SE6       30.08S HX  91
IOWA FALLS *     N/A     87  70  57 S8        30.11S HX  91
$$

IAZ007>011-017>019-026>030-037>042-050>054-066-282300-
   NORTHEAST IOWA

CITY           SKY/WX    TMP DP  RH WIND       PRES   REMARKS
CEDAR RAPIDS   CLOUDY    84  74  71 E6        30.11F HX  91
CHARLES CITY * MOSUNNY   82  73  74 SE6G14    30.13S HX  88
CLINTON *      MOSUNNY   84  74  71 NE8       30.13F HX  91
DECORAH *      CLOUDY    81  72  74 VRB5      30.13F HX  84
DUBUQUE        MOSUNNY   82  70  66 E8        30.14F HX  86
MONTICELLO *   MOSUNNY   81  75  83 NE10      30.13R HX  86
OELWEIN *      MOSUNNY   84  73  70 SE7       30.14R HX  91
WATERLOO       MOSUNNY   84  71  65 SE8       30.10R HX  89
$$

IAZ064-065-067-068-078-282300-
   EAST CENTRAL IOWA

CITY           SKY/WX    TMP DP  RH WIND       PRES   REMARKS
DAVENPORT      LGT RAIN  83  73  72 SE7       30.12F HX  89
IOWA CITY      PTSUNNY   86  71  60 S7        30.11F HX  91
MT. PLEASANT * MOSUNNY   91  75  59 SE8       30.11R HX 101
MUSCATINE *    MOSUNNY   88  72  58 SE8       30.10S HX  94
QUAD CITIES    CLOUDY    78  70  76 SE16G23   30.11S THUNDER HX  80
$$

IAZ062-063-075>077-085>089-095>099-282300-
   SOUTHEAST IOWA

CITY           SKY/WX    TMP DP  RH WIND       PRES   REMARKS
BURLINGTON     CLOUDY    85  74  69 S12       30.11S HX  92
FAIRFIELD *    CLOUDY    86  72  62 VRB5      30.10S HX  92
FORT MADISON *   N/A     84  77  79 S7        30.12S HX  94
KEOKUK *       MOSUNNY   84  75  74 CALM      30.10F HX  92
OSKALOOSA *      N/A     82  71  71 S5        30.11S HX  86
CENTERVILLE *    N/A     82  73  74 SE7       30.13R HX  88
OTTUMWA        MOSUNNY   84  69  60 SE5       30.10S HX  88
WASHINGTON *   MOSUNNY   86  75  70 S6        30.11S HX  95
$$

ABBREVIATIONS USED IN REMARKS
   TC - TEMPERATURES IN CELSIUS
  WCI - WIND CHILL INDEX
   HX - HEAT INDEX
  VSB - VISIBILITY
$$





USA.gov is the U.S. government's official web portal to all federal, state and local government web resources and services.